[[{"header":{"parameterUnit":"m.s-1","parameterCategory":1,"la1":30.2991,"la2":30.254,"lo1":-89.0895,"lo2":-89.0444,"dy":0.0017,"dx":0.0017,"nx":28,"ny":28,"refTime":"2024-10-15T03:00:00:Z","depth":0,"parameterNumber":2,"parameterNumberName":"U-component_of_WINDS"},"data":[0,0,0,0,0,0,0,0,0,0,0,0,0,0,0,0,0,0,0,0,0,0,0,0,0,0,0,0,0,0,0,0,0,0,0,0,0,0,0,0,0,0,0,0,0,0,0,0,0,0,0,0,0,0,0,0,0,0,-3.0104,-3.0104,0,-3.0088,-3.0088,-3.0088,-2.9967,-2.9964,-2.9961,-2.9958,-2.9945,-2.9947,-2.9949,0,0,0,0,0,0,0,0,0,0,0,0,0,-3.0031,-3.0033,-3.0104,-3.0104,-3.0103,-3.0088,-3.0088,-3.0088,-2.9968,-2.9964,-2.996,-2.9957,-2.9944,-2.9947,-2.995,0,0,0,0,0,0,0,0,0,0,0,0,0,-3.0044,-3.0034,-3.0104,-3.0042,-3.0036,-3.0088,-3.0088,-3.0088,-2.9968,-2.9964,-2.9959,-2.9955,-2.9943,-2.9946,-2.995,-3.0062,0,0,-2.9961,-2.9963,0,0,0,0,0,0,0,0,-3.0044,-3.0047,-3.0051,-3.0046,-3.004,-3.0025,-3.0057,-3.0079,-2.997,-2.9994,-2.9958,-2.9953,-2.9975,-2.9976,-2.9983,-3.0061,-3.006,-2.9961,-2.9964,-2.9965,-2.9966,0,0,0,0,0,0,0,-3.0043,-3.0047,-3.0098,-3.0051,-3.0044,-3.0015,-3.0012,-3.0061,-3.001,-2.9992,-2.9983,-2.9982,-2.9971,-2.998,-2.9982,-3.006,-2.9961,-2.9964,-2.9967,-2.9968,-3.0228,-3.0233,0,0,0,0,0,0,-3.005,-3.0047,-3.0098,-3.0097,-3.0031,-3.002,-3.0016,-3.0034,-3.0009,-3.0001,-2.9986,-2.9977,-2.9976,-2.9977,-2.9981,-3.0109,-2.9965,-2.9968,-2.9971,-3.0224,-3.0229,-3.0234,0,0,0,0,0,0,-3.0049,-3.0056,-3.0099,-3.007,-3.0073,-3.0026,-3.0047,-3.0036,-3.0044,-3.0005,-2.9995,-3.0004,-2.9972,-2.9976,-3.0042,-3.0107,-2.997,-2.9973,-3.0218,-3.0225,-3.0232,-3.0367,0,0,0,0,0,0,-3.0048,-3.0056,-3.0098,-3.0071,-3.0075,-3.016,-3.0051,-3.0039,-3.0051,-3.0038,-3.0019,-3.0012,-2.9969,-3.0037,-3.0046,-3.0109,-2.9976,-3.0212,-3.0221,-3.023,-3.0357,-3.0378,-3.0397,0,0,0,0,0,-3.0046,-3.0138,-3.0101,-3.0108,-3.0126,-3.0164,-3.0166,-3.0114,-3.0056,-3.0098,-3.0072,-3.0012,-3.0098,-3.0045,-3.0053,-3.0119,-3.0208,-3.0219,-3.0229,-3.0348,-3.0374,-3.0396,0,0,0,0,0,0,-3.0174,-3.0133,-3.0092,-3.0178,-3.0175,-3.0144,-3.0195,-3.0144,-3.0158,-3.0146,-3.0082,-3.0079,-3.0155,-3.0144,-3.0085,-3.0226,-3.0143,-3.0155,-3.023,-3.0255,-3.0274,-3.0275,-2.9979,0,0,0,0,0,-3.0212,-3.0246,-3.0209,-3.0288,-3.0289,-3.0243,-3.0257,-3.0218,-3.0213,-3.0211,-3.0191,-3.0189,-3.0215,-3.0234,-3.0257,-3.0354,-3.0349,-3.0404,-3.0424,-3.044,-3.0452,-3.0503,-3.0527,-3.0269,-3.0269,-3.0269,0,0,-3.0292,-3.0274,-3.0299,-3.0314,-3.0307,-3.0344,-3.0243,-3.0286,-3.0313,-3.0218,-3.0279,-3.0264,-3.0258,-3.0341,-3.0376,-3.0334,-3.0522,-3.0454,-3.0467,-3.047,-3.0516,-3.0541,-3.0563,-3.0277,-3.0275,-3.0274,0,0,-3.0456,-3.0446,-3.051,-3.0506,-3.0496,-3.0464,-3.048,-3.0456,-3.0442,-3.0503,-3.0432,-3.0463,-3.051,-3.0509,-3.0514,-3.0677,-3.0622,-3.0686,-3.0789,-3.084,-3.086,-3.0877,-3.0935,-3.0957,-3.0698,-3.0698,-3.0698,0,-3.0556,-3.0609,-3.055,-3.0598,-3.0607,-3.0521,-3.0586,-3.0585,-3.0584,-3.0592,-3.0544,-3.0601,-3.0591,-3.0672,-3.0711,-3.0719,-3.0735,-3.0688,-3.0861,-3.0879,-3.0894,-3.0949,-3.0971,-3.0706,-3.0705,-3.0704,-3.0703,0,-3.0733,-3.077,-3.0824,-3.0824,-3.0838,-3.0895,-3.0845,-3.0867,-3.0826,-3.0799,-3.0862,-3.0846,-3.0864,-3.088,-3.0841,-3.0955,-3.0929,-3.0873,-3.0788,-3.0928,-3.0978,-3.0998,-3.0717,-3.0714,-3.0712,-3.071,0,0,-3.0978,-3.0944,-3.0965,-3.0963,-3.0947,-3.0975,-3.1028,-3.1043,-3.1063,-3.1066,-3.1108,-3.115,-3.1097,-3.1103,-3.1063,-3.1107,-3.1237,-3.1044,-3.1043,-3.1081,-3.1362,-3.1405,-3.143,-3.12,-3.1204,-3.1207,-3.1362,0,-3.1135,-3.1223,-3.1171,-3.1266,-3.13,-3.1219,-3.1265,-3.126,-3.1236,-3.1262,-3.1236,-3.1267,-3.1195,-3.1198,-3.1238,-3.1213,-3.1292,-3.12,-3.124,-3.1242,-3.1244,-3.1456,-3.1501,-3.1649,-3.1382,-3.1385,-3.1387,0,-3.1331,-3.134,-3.1439,-3.1414,-3.1427,-3.1469,-3.1479,-3.1504,-3.1497,-3.1477,-3.1484,-3.1432,-3.1483,-3.1399,-3.1468,-3.1406,-3.1419,-3.1409,-3.1414,-3.1416,-3.1323,-3.1464,-3.1695,-3.1717,-3.1418,-3.1415,-3.1413,0,-3.15,-3.1537,-3.16,-3.1602,-3.1575,-3.1607,-3.1597,-3.1585,-3.1598,-3.1607,-3.1615,-3.1631,-3.1639,-3.1653,-3.1607,-3.155,-3.1682,-3.1595,-3.1667,-3.1669,-3.1699,-3.1697,-3.1936,-3.1707,-3.1707,-3.1707,-3.1706,0,-3.1681,-3.1744,-3.1676,-3.1715,-3.1783,-3.1724,-3.1793,-3.1775,-3.1765,-3.18,-3.1731,-3.1765,-3.1702,-3.1731,-3.1695,-3.1757,-3.1762,-3.1747,-3.1737,-3.1754,-3.1756,-3.1761,-3.175,-3.1713,-3.1711,-3.171,-3.1709,0,-3.1882,-3.1838,-3.1902,-3.1871,-3.1865,-3.1917,-3.189,-3.1926,-3.1897,-3.1941,-3.1949,-3.1904,-3.1933,-3.1889,-3.1914,-3.189,-3.1976,-3.195,-3.1978,-3.1971,-3.2046,-3.2039,-3.2296,-3.2326,-3.2079,-3.2082,-3.2084,0,-3.2,-3.2047,-3.202,-3.2038,-3.2032,-3.2062,-3.2074,-3.2017,-3.2032,-3.2027,-3.2063,-3.2086,-3.2102,-3.2152,-3.2123,-3.2141,-3.2115,-3.2204,-3.2118,-3.2133,-3.2117,-3.2114,-3.2119,-3.2222,-3.2225,-3.2227,-3.2229,0,-3.2215,-3.2191,-3.221,-3.2223,-3.2239,-3.2246,-3.2248,-3.2267,-3.2207,-3.2228,-3.2256,-3.2269,-3.2293,-3.2317,-3.2328,-3.2318,-3.2265,-3.2257,-3.2274,-3.2292,-3.2306,-3.2299,-3.2026,-3.2251,-3.2249,-3.2247,-3.2246,-3.2245,-3.2378,-3.2415,-3.2402,-3.2426,-3.2422,-3.2425,-3.2456,-3.2431,-3.2453,-3.2468,-3.2433,-3.247,-3.2461,-3.247,-3.2467,-3.2495,-3.2456,-3.2482,-3.2489,-3.2496,-3.2507,-3.2301,-3.2497,-3.2496,-3.2496,-3.2495,-3.2495,0,-3.2589,-3.2576,-3.2599,-3.2603,-3.2623,-3.2569,-3.2568,-3.2588,-3.2621,-3.2617,-3.2633,-3.2665,-3.2688,-3.266,-3.2678,-3.2706,-3.2682,-3.2713,-3.271,-3.2709,-3.2541,-3.2524,-3.2732,-3.2732,-3.2732,-3.2732,-3.2732,-3.2732,-3.2701,-3.2761,-3.2735,-3.2792,-3.2779,-3.2814,-3.2818,-3.2821,-3.2817,-3.2856,-3.2874,-3.2856,-3.2842,-3.2858,-3.2877,-3.2868,-3.2878,-3.2918,-3.29,-3.2744,-3.2721,-3.2699,-3.2682,-3.292,-3.292,-3.3065,-3.3067,-3.3068]},{"header":{"parameterUnit":"m.s-1","parameterCategory":1,"la1":30.2991,"la2":30.254,"lo1":-89.0895,"lo2":-89.0444,"dy":0.0017,"dx":0.0017,"nx":28,"ny":28,"refTime":"2024-10-15T03:00:00:Z","depth":0,"parameterNumber":3,"parameterNumberName":"V-component_of_WINDS"},"data":[0,0,0,0,0,0,0,0,0,0,0,0,0,0,0,0,0,0,0,0,0,0,0,0,0,0,0,0,0,0,0,0,0,0,0,0,0,0,0,0,0,0,0,0,0,0,0,0,0,0,0,0,0,0,0,0,0,0,-4.1646,-4.1646,0,-4.17,-4.1701,-4.1702,-4.1628,-4.1625,-4.1622,-4.162,-4.1673,-4.1677,-4.1681,0,0,0,0,0,0,0,0,0,0,0,0,0,-4.1475,-4.1478,-4.1646,-4.1647,-4.1647,-4.17,-4.1701,-4.1702,-4.1628,-4.1625,-4.1622,-4.1619,-4.1672,-4.1677,-4.1681,0,0,0,0,0,0,0,0,0,0,0,0,0,-4.1541,-4.1479,-4.1646,-4.1617,-4.1615,-4.17,-4.1701,-4.1702,-4.1629,-4.1625,-4.1621,-4.1617,-4.1671,-4.1676,-4.1682,-4.1797,0,0,-4.17,-4.1702,0,0,0,0,0,0,0,0,-4.1537,-4.1547,-4.1621,-4.1619,-4.1617,-4.1653,-4.166,-4.1734,-4.163,-4.1624,-4.162,-4.1615,-4.167,-4.1675,-4.1694,-4.18,-4.1802,-4.17,-4.1704,-4.1706,-4.1708,0,0,0,0,0,0,0,-4.1533,-4.1545,-4.1667,-4.1622,-4.162,-4.16,-4.1605,-4.1674,-4.1668,-4.1624,-4.1619,-4.1626,-4.1668,-4.1689,-4.1695,-4.1803,-4.17,-4.1705,-4.1709,-4.1711,-4.2005,-4.2009,0,0,0,0,0,0,-4.1532,-4.1541,-4.1666,-4.1669,-4.1567,-4.1607,-4.1612,-4.1646,-4.1667,-4.1667,-4.163,-4.1623,-4.1681,-4.1688,-4.1697,-4.1833,-4.1706,-4.1712,-4.1715,-4.2,-4.2006,-4.201,0,0,0,0,0,0,-4.1529,-4.1544,-4.1663,-4.1604,-4.1617,-4.1614,-4.1652,-4.1649,-4.167,-4.1672,-4.167,-4.1652,-4.1678,-4.1688,-4.1773,-4.1834,-4.1714,-4.172,-4.1995,-4.2002,-4.2008,-4.2107,0,0,0,0,0,0,-4.1524,-4.1543,-4.1588,-4.1605,-4.1621,-4.174,-4.1656,-4.1653,-4.168,-4.1672,-4.1692,-4.1692,-4.1676,-4.1764,-4.1779,-4.1839,-4.1724,-4.199,-4.1998,-4.2006,-4.2098,-4.2116,-4.2131,0,0,0,0,0,-4.1518,-4.1613,-4.1591,-4.1606,-4.1677,-4.1744,-4.1753,-4.1733,-4.1685,-4.173,-4.1731,-4.1691,-4.1824,-4.1774,-4.1789,-4.1853,-4.1986,-4.1996,-4.2005,-4.2091,-4.2112,-4.213,0,0,0,0,0,0,-4.1602,-4.1615,-4.159,-4.1694,-4.1718,-4.1731,-4.1787,-4.1756,-4.1794,-4.1785,-4.1757,-4.1763,-4.1853,-4.1861,-4.1804,-4.1965,-4.1897,-4.191,-4.1957,-4.1977,-4.1993,-4.199,-4.1729,0,0,0,0,0,-4.1633,-4.1687,-4.1695,-4.1785,-4.1799,-4.1791,-4.1819,-4.1802,-4.1826,-4.1836,-4.1843,-4.1867,-4.1914,-4.1946,-4.1989,-4.2098,-4.2101,-4.2149,-4.2166,-4.2179,-4.2191,-4.2249,-4.227,-4.2042,-4.2042,-4.2042,0,0,-4.1697,-4.171,-4.1746,-4.1802,-4.1819,-4.1875,-4.18,-4.1862,-4.1903,-4.1845,-4.1925,-4.1931,-4.1956,-4.2054,-4.2097,-4.2063,-4.2255,-4.2191,-4.2202,-4.2207,-4.2261,-4.2282,-4.2302,-4.2049,-4.2047,-4.2046,0,0,-4.1841,-4.1857,-4.1934,-4.1953,-4.198,-4.1974,-4.1992,-4.201,-4.2012,-4.2092,-4.205,-4.2097,-4.2179,-4.2198,-4.2219,-4.237,-4.2335,-4.2385,-4.2471,-4.2528,-4.2546,-4.2561,-4.2616,-4.2635,-4.2397,-4.2397,-4.2397,0,-4.1917,-4.2001,-4.1978,-4.2043,-4.2069,-4.2019,-4.2096,-4.2115,-4.2155,-4.2173,-4.2134,-4.2236,-4.2249,-4.235,-4.2387,-4.2405,-4.2425,-4.2383,-4.2545,-4.2561,-4.2575,-4.2626,-4.2647,-4.2403,-4.2402,-4.2401,-4.2401,0,-4.2092,-4.2151,-4.2209,-4.225,-4.2282,-4.2353,-4.234,-4.2375,-4.2354,-4.2352,-4.2433,-4.2447,-4.2493,-4.2515,-4.2495,-4.2613,-4.2591,-4.255,-4.2481,-4.2603,-4.2651,-4.267,-4.2411,-4.2409,-4.2407,-4.2406,0,0,-4.2293,-4.2319,-4.2341,-4.2359,-4.2384,-4.2429,-4.2496,-4.2541,-4.2572,-4.26,-4.2656,-4.2726,-4.2688,-4.2711,-4.2693,-4.2742,-4.2861,-4.2694,-4.2694,-4.2725,-4.2992,-4.3024,-4.3047,-4.2837,-4.2841,-4.2844,-4.299,0,-4.2438,-4.2558,-4.2538,-4.2653,-4.2706,-4.2659,-4.2718,-4.2739,-4.2738,-4.2782,-4.2781,-4.2831,-4.2776,-4.279,-4.2837,-4.2837,-4.2914,-4.2826,-4.2889,-4.2892,-4.2886,-4.3072,-4.3106,-4.3243,-4.3008,-4.3011,-4.3013,0,-4.2624,-4.266,-4.2781,-4.2798,-4.2819,-4.2873,-4.2912,-4.2955,-4.2978,-4.2973,-4.3,-4.2972,-4.3038,-4.2968,-4.3059,-4.3,-4.3024,-4.3028,-4.3032,-4.3038,-4.2961,-4.3083,-4.3286,-4.3307,-4.3042,-4.304,-4.3038,0,-4.2759,-4.2838,-4.292,-4.2936,-4.2957,-4.2996,-4.3007,-4.3025,-4.3054,-4.3087,-4.3105,-4.3146,-4.3168,-4.32,-4.3183,-4.3134,-4.3278,-4.3206,-4.3276,-4.3276,-4.3309,-4.3307,-4.3519,-4.3324,-4.3323,-4.3323,-4.3322,0,-4.2924,-4.3,-4.2981,-4.3032,-4.3115,-4.3091,-4.3173,-4.3177,-4.3194,-4.3244,-4.3205,-4.3252,-4.3227,-4.3272,-4.3259,-4.3337,-4.3347,-4.3345,-4.3341,-4.3349,-4.335,-4.3365,-4.3356,-4.3328,-4.3327,-4.3326,-4.3325,0,-4.3089,-4.308,-4.3166,-4.3179,-4.3184,-4.3245,-4.3255,-4.3302,-4.3297,-4.3361,-4.3375,-4.3367,-4.3419,-4.3405,-4.346,-4.3451,-4.3549,-4.3533,-4.3542,-4.3539,-4.3609,-4.3603,-4.3839,-4.3869,-4.3653,-4.3656,-4.3657,0,-4.3196,-4.3253,-4.3272,-4.3303,-4.3317,-4.3367,-4.3396,-4.3373,-4.3405,-4.3434,-4.3477,-4.3525,-4.3562,-4.3646,-4.3645,-4.3687,-4.3671,-4.3751,-4.3677,-4.3684,-4.3673,-4.367,-4.3676,-4.3766,-4.3769,-4.3771,-4.3772,0,-4.3386,-4.3378,-4.3421,-4.3463,-4.3498,-4.3529,-4.3557,-4.3584,-4.3564,-4.36,-4.3653,-4.3681,-4.3738,-4.3786,-4.3824,-4.3833,-4.38,-4.3795,-4.3814,-4.3823,-4.3827,-4.3826,-4.3583,-4.379,-4.3788,-4.3787,-4.3786,-4.3785,-4.3525,-4.3574,-4.3595,-4.3644,-4.3662,-4.3689,-4.3733,-4.3735,-4.3778,-4.3823,-4.3806,-4.3866,-4.3886,-4.3934,-4.3948,-4.3993,-4.3963,-4.399,-4.3996,-4.4004,-4.4013,-4.3819,-4.4,-4.4,-4.3999,-4.3999,-4.3998,0,-4.3714,-4.3725,-4.377,-4.381,-4.3848,-4.3813,-4.3842,-4.3876,-4.3929,-4.3951,-4.3988,-4.4048,-4.4094,-4.4096,-4.4139,-4.4175,-4.416,-4.4187,-4.4184,-4.4187,-4.4037,-4.4018,-4.4198,-4.4198,-4.4197,-4.4197,-4.4197,-4.4197,-4.3816,-4.3897,-4.3891,-4.398,-4.3989,-4.4048,-4.4068,-4.4091,-4.4108,-4.4177,-4.4215,-4.4217,-4.423,-4.4273,-4.4313,-4.4313,-4.433,-4.4363,-4.4357,-4.4217,-4.4197,-4.4179,-4.416,-4.4367,-4.4367,-4.4502,-4.4504,-4.4505]}]]